Location: Karcze
(52.0945°N, 22.4786°E)
Time: 11:35:16
(UTC+00:00)

ARIANE 5 R/B - Pass Details

Date: 14 July 2020
Orbit: 749 x 794 km, 98.6° (Epoch: 07 August)

Event Time Altitude Azimuth Distance (km) Brightness Sun altitude
Rises 01:09:15 0° 18° (NNE) 3,234 7.4 -9.1°
Reaches altitude 10° 01:11:36 10° 23° (NNE) 2,310 6.5 -8.8°
Maximum altitude 01:16:36 56° 101° (E) 918 3.1 -8.4°
Drops below altitude 10° 01:21:37 10° 180° (S) 2,322 4.5 -7.9°
Enters shadow 01:23:10 - 183° (S) 2,924 5.0 -7.8°
